Wetbulb
54.50 54.74 54.78 55.32 56.01 56.34 56.55 56.59 56.74 56.66 56.70 56.69 56.97 56.85 56.64 56.48 56.01 53.80 49.28 54.09 56.56 59.85 58.02 54.17 53.79 53.54 53.98 51.23 52.24 52.24 45.35 43.28 42.05 42.23 44.03 45.69 44.69 48.76 49.89 47.94 48.36 48.11 47.21 48.47 50.39
53.66 54.23 54.50 55.01 55.77 55.87 56.21 56.21 56.31 56.31 56.44 56.78 56.99 57.27 56.68 55.80 52.40 50.04 54.79 57.74 58.52 57.90 52.62 51.30 49.31 50.87 48.96 48.49 48.98 48.24 44.74 41.83 43.98 43.66 42.55 43.70 44.62 45.53 45.38 46.09 46.28 46.90 49.19 49.34 49.47
53.14 53.36 53.85 54.54 55.06 55.54 55.69 55.95 55.88 55.96 56.46 56.70 57.40 56.87 55.80 53.77 48.72 48.37 56.91 57.35 57.68 55.81 52.04 50.92 50.18 48.83 46.13 47.69 45.94 45.35 43.39 43.06 43.01 45.07 44.73 44.19 44.69 46.41 44.63 43.53 45.56 44.35 46.12 46.88 47.43
53.10 53.29 53.22 53.83 54.57 54.93 55.32 55.62 55.80 55.91 56.16 56.64 57.81 55.66 54.77 51.54 42.47 50.85 56.85 56.27 56.85 54.17 51.76 49.50 48.07 46.63 45.14 43.39 45.46 41.63 43.10 43.67 44.00 44.65 44.35 43.48 45.70 43.93 44.63 45.20 46.68 46.33 46.15 46.17 45.77
53.05 53.04 53.16 53.29 53.91 54.30 55.04 55.45 55.73 55.68 55.77 56.49 58.08 55.76 50.90 48.03 46.35 52.84 55.91 56.12 54.74 52.74 50.14 48.35 47.38 47.14 43.94 44.26 45.52 43.13 42.87 43.72 44.57 44.31 44.00 44.56 43.51 43.22 44.07 46.61 46.17 45.34 45.31 45.25 45.39
53.42 53.53 53.32 53.35 53.29 53.85 54.62 55.04 55.36 55.23 55.33 56.11 57.90 53.54 49.57 43.94 51.43 52.97 52.93 53.76 53.29 52.16 50.27 50.00 47.78 48.88 45.30 43.82 43.96 44.36 43.46 43.09 43.85 43.73 43.61 41.88 43.14 42.52 44.55 46.02 45.48 44.51 44.51 44.82 44.69
53.52 53.57 53.44 53.56 53.14 53.29 54.39 54.79 55.05 55.54 55.17 55.73 56.74 50.67 48.83 44.90 51.59 52.63 53.06 51.74 52.73 52.70 49.06 49.92 49.73 48.16 47.08 42.76 45.31 44.16 40.48 42.16 42.57 42.93 42.45 43.21 40.45 40.91 44.61 45.06 44.09 44.33 44.56 44.31 44.62
53.84 53.92 54.05 53.72 53.38 53.42 54.48 54.95 55.25 54.68 55.37 56.03 54.41 51.23 44.42 50.48 53.33 51.11 53.32 51.82 52.71 52.22 50.86 50.68 51.87 48.17 46.33 46.49 43.81 41.09 40.35 38.51 41.09 41.95 43.03 42.50 38.99 42.35 44.88 44.14 43.74 44.45 44.63 44.27 44.69
54.02 54.56 54.37 54.00 54.29 54.01 54.54 54.63 53.14 53.96 54.14 52.77 50.44 49.31 43.24 52.09 48.45 49.95 51.52 49.73 51.12 50.45 50.29 50.01 49.77 45.82 44.93 42.21 40.34 40.18 37.01 37.19 39.02 41.07 40.40 40.84 39.28 43.00 44.71 43.67 43.49 44.75 44.75 44.62 44.66
54.10 54.71 54.83 54.49 54.00 54.53 53.98 53.88 52.18 52.97 52.55 48.49 48.39 46.35 45.94 43.59 47.19 48.36 51.29 50.31 48.17 47.63 47.68 47.21 46.52 43.83 43.79 41.51 36.81 35.70 36.10 37.35 36.84 40.15 39.99 39.77 40.11 43.72 45.06 43.76 43.48 44.80 45.08 44.94 44.80
54.52 54.63 54.58 54.49 53.58 53.56 52.77 51.27 48.57 48.02 47.54 42.22 42.33 42.59 43.91 47.21 48.56 47.84 49.03 48.30 47.72 46.10 41.97 43.40 42.35 38.14 38.40 39.87 39.63 37.73 36.41 36.09 39.51 39.69 37.44 39.68 39.75 42.30 43.37 43.41 43.33 44.16 44.53 44.76 44.88
55.17 54.81 53.90 52.93 53.00 52.45 52.54 47.39 47.20 48.80 41.03 43.80 43.52 44.38 45.58 45.92 42.87 46.35 50.02 44.64 44.26 40.22 41.29 41.47 37.11 38.77 39.67 39.34 38.19 37.25 35.44 36.40 38.97 38.79 38.00 39.31 38.42 41.35 42.19 42.48 43.07 43.29 43.69 44.22 44.76
55.27 54.74 53.46 52.38 52.57 51.65 50.28 48.57 50.86 49.62 44.25 40.90 42.62 43.18 43.52 45.53 41.67 42.76 46.65 44.03 41.67 39.20 39.55 38.83 37.43 39.13 38.07 37.24 36.37 36.42 34.00 33.66 33.17 37.77 39.95 37.27 38.13 39.34 41.64 42.05 42.90 43.58 43.97 43.85 43.56
55.24 54.40 52.42 51.47 48.12 50.64 48.74 50.47 51.90 50.23 43.83 38.43 40.19 42.51 44.21 44.30 40.65 44.63 45.36 43.57 41.06 37.50 38.35 36.77 37.76 36.77 36.33 35.74 36.87 33.48 36.23 34.98 34.86 34.22 33.84 37.84 33.03 38.36 39.99 40.26 41.48 42.43 42.68 42.62 43.17
54.97 53.80 51.49 49.96 50.80 48.11 49.29 51.09 51.23 51.14 33.34 38.98 39.95 46.12 44.34 42.15 41.41 41.84 44.86 44.55 39.51 37.45 37.94 35.32 34.75 34.66 34.40 35.09 37.24 35.03 36.39 35.16 34.94 33.49 33.76 35.05 32.95 38.09 39.08 38.24 40.04 41.56 42.12 42.66 43.12
54.60 52.39 50.52 49.16 50.65 49.92 51.05 50.72 51.44 38.30 35.08 36.42 39.92 39.52 39.76 40.83 40.86 42.36 41.81 44.05 42.34 38.15 38.25 35.83 38.83 37.14 35.93 36.69 37.32 37.38 35.78 35.32 34.27 33.23 30.50 31.66 31.62 35.75 36.34 37.85 39.58 41.91 42.57 42.64 43.04
54.29 50.48 49.64 50.02 47.04 50.86 51.29 50.15 35.40 33.90 37.69 35.41 36.65 38.95 38.06 37.37 38.77 38.90 37.11 37.88 38.14 35.11 32.17 33.74 34.19 36.10 36.86 34.49 36.83 35.61 33.90 32.32 31.72 29.69 32.04 30.48 29.39 35.79 38.41 40.31 40.56 40.76 42.27 43.12 43.37
52.65 49.90 47.71 48.35 50.28 50.14 49.91 45.32 33.18 35.48 37.15 36.90 37.58 37.92 37.26 37.63 37.67 37.95 36.75 36.28 35.45 34.93 33.78 34.54 34.87 33.08 35.65 34.83 33.08 33.04 32.60 31.69 25.89 29.68 30.56 28.80 28.93 36.16 40.12 40.99 41.41 42.03 42.76 43.09 43.03
50.45 50.25 48.06 47.95 48.62 49.72 46.66 33.16 36.33 39.59 39.85 36.56 35.97 37.28 35.28 35.76 37.02 36.99 36.59 36.63 35.87 35.27 34.93 32.87 32.57 34.05 34.67 36.03 35.10 32.78 32.92 32.59 28.02 21.93 25.20 32.66 34.39 37.58 39.03 40.04 41.07 41.25 41.44 42.11 42.55
49.78 48.30 47.17 47.95 48.51 48.46 40.60 35.55 36.99 43.33 39.66 39.19 41.29 39.95 37.03 35.49 36.93 35.97 36.37 36.85 34.44 34.74 34.34 33.56 33.42 30.84 32.89 36.01 35.97 33.74 34.81 29.64 29.88 26.15 28.46 30.91 30.39 34.15 35.34 37.70 40.05 39.98 40.47 41.19 41.83
49.24 44.85 46.50 47.69 48.27 43.88 32.69 34.66 40.20 40.04 39.91 39.17 39.16 37.02 40.11 37.65 38.60 37.18 36.88 36.42 36.47 33.72 34.64 33.79 33.77 31.33 30.89 32.01 32.96 31.78 31.75 30.34 30.88 28.00 27.03 28.27 34.76 39.82 37.74 39.17 39.57 40.02 40.23 40.58 40.49
48.32 35.30 46.50 46.86 36.21 32.54 33.19 37.60 40.90 37.23 38.20 38.58 39.81 40.18 39.89 39.22 37.42 37.98 37.63 37.10 38.28 36.43 32.35 33.90 33.72 31.11 33.36 31.60 32.95 32.95 32.43 32.95 30.96 30.36 27.25 24.95 31.81 37.67 39.46 39.96 40.01 40.20 40.48 40.24 39.53
44.29 42.17 45.42 44.65 32.87 32.22 33.79 37.89 38.60 35.90 36.73 37.40 37.91 39.65 38.84 40.05 37.42 36.88 35.28 35.91 37.15 35.60 33.79 34.01 34.13 33.24 32.30 30.57 30.90 29.79 32.49 33.20 30.49 29.35 28.95 28.68 37.16 36.02 36.95 36.86 38.82 38.95 40.79 39.76 38.93
41.14 33.09 38.84 40.21 40.29 38.05 34.64 36.39 36.33 37.77 37.83 39.17 38.33 38.34 37.92 35.28 38.65 34.84 34.28 34.90 36.12 35.98 35.86 35.30 33.18 33.77 33.08 33.17 33.44 28.91 29.99 32.34 31.66 29.54 30.80 29.01 33.00 36.68 34.77 34.16 37.62 38.31 39.57 38.50 38.01
40.34 34.63 35.37 31.56 32.14 37.75 39.85 38.53 36.33 33.88 36.70 38.39 35.66 37.42 38.27 32.47 33.68 34.68 34.94 32.84 34.83 36.31 35.36 33.48 30.23 28.79 31.89 30.11 29.86 30.96 31.62 30.43 27.90 31.89 31.69 33.71 28.08 33.91 38.43 36.06 35.14 36.70 37.34 37.26 34.70
35.67 35.09 37.42 36.28 40.65 36.41 38.47 36.92 38.54 37.69 35.75 34.84 36.89 39.32 39.41 37.10 41.36 35.66 36.10 34.99 35.49 33.88 32.72 33.64 30.86 27.37 29.11 26.60 26.60 25.74 29.33 30.66 29.80 30.55 30.22 29.68 28.63 38.66 40.20 39.39 36.01 33.96 35.96 36.63 37.79
43.44 42.56 43.11 38.81 38.87 35.82 37.00 38.82 39.91 40.08 37.30 39.18 38.89 37.79 36.29 41.04 38.07 37.32 38.26 37.98 37.52 33.54 32.23 31.33 30.10 28.97 32.07 24.99 24.89 28.50 26.46 29.23 30.97 31.88 31.70 27.79 35.38 40.03 38.03 35.62 36.68 37.90 37.42 37.32 39.77
MSLP
1020.17 1020.16 1020.03 1019.67 1019.53 1019.52 1019.49 1019.40 1019.40 1019.41 1018.96 1018.63 1018.58 1018.13 1017.85 1017.57 1017.24 1016.77 1017.10 1018.10 1017.54 1016.84 1016.66 1015.61 1014.44 1014.00 1013.72 1013.73 1013.78 1013.50 1012.54 1012.98 1014.28 1014.76 1015.43 1016.36 1016.43 1016.99 1017.67 1017.29 1018.03 1018.74 1019.12 1019.60 1019.65
1020.33 1020.23 1020.22 1019.85 1019.73 1019.33 1019.23 1018.97 1019.05 1019.30 1019.07 1018.63 1018.58 1018.28 1017.96 1018.03 1017.25 1017.28 1018.39 1017.90 1017.38 1016.76 1015.78 1015.08 1014.68 1014.11 1013.96 1014.02 1014.14 1013.76 1013.69 1015.05 1016.14 1016.34 1016.38 1016.83 1017.10 1017.35 1017.46 1017.31 1017.81 1018.61 1019.08 1019.79 1019.91
1020.26 1020.35 1020.13 1020.21 1019.54 1019.79 1019.30 1019.06 1018.67 1019.02 1019.22 1018.63 1018.41 1018.16 1018.05 1017.97 1017.42 1017.69 1018.03 1017.70 1017.29 1016.80 1015.96 1015.64 1015.13 1014.65 1014.42 1014.70 1015.18 1015.30 1015.34 1016.52 1017.11 1017.42 1017.49 1017.49 1017.48 1018.01 1017.89 1017.64 1018.68 1019.41 1019.73 1020.05 1019.98
1020.32 1020.47 1020.33 1019.94 1019.74 1019.70 1019.52 1019.17 1018.84 1018.64 1018.89 1018.77 1018.41 1018.13 1018.03 1017.60 1018.11 1017.89 1017.98 1017.59 1017.21 1016.64 1015.99 1015.54 1015.18 1014.74 1015.00 1015.45 1016.01 1016.23 1017.18 1017.37 1017.90 1018.24 1018.15 1018.00 1018.16 1018.11 1018.53 1018.73 1019.62 1019.89 1020.22 1020.16 1020.11
1020.31 1020.13 1020.17 1020.04 1019.83 1019.37 1019.28 1019.09 1018.99 1018.62 1018.60 1018.76 1018.46 1018.12 1017.88 1017.45 1018.44 1018.27 1018.00 1017.53 1016.79 1016.54 1016.09 1015.66 1015.43 1015.18 1015.50 1016.30 1016.37 1016.75 1017.70 1018.16 1018.50 1018.73 1018.76 1018.79 1018.39 1018.57 1018.52 1019.04 1019.72 1020.05 1020.13 1020.04 1020.16
1020.22 1020.64 1020.32 1020.18 1019.80 1019.23 1019.25 1019.08 1018.79 1018.44 1018.26 1018.56 1018.39 1018.03 1017.51 1017.90 1018.84 1018.59 1018.19 1017.60 1017.26 1016.42 1016.38 1015.79 1015.84 1015.86 1016.35 1017.05 1016.92 1017.60 1018.10 1018.46 1018.70 1018.80 1018.94 1018.84 1018.23 1018.66 1018.33 1019.01 1019.13 1019.42 1019.57 1019.81 1020.14
1020.38 1020.47 1020.35 1020.47 1019.59 1019.30 1019.27 1018.84 1018.67 1018.72 1018.18 1018.28 1018.06 1017.81 1017.56 1019.07 1019.03 1018.74 1018.37 1018.24 1017.80 1016.99 1016.82 1017.20 1016.83 1016.37 1016.82 1017.62 1018.03 1018.06 1018.21 1018.54 1018.54 1018.74 1018.53 1018.82 1018.00 1017.76 1018.11 1018.63 1018.52 1018.63 1019.07 1019.50 1019.77
1020.36 1020.14 1020.70 1020.10 1019.69 1019.23 1019.22 1018.72 1018.60 1018.46 1018.18 1018.15 1017.93 1017.43 1018.55 1019.24 1019.03 1018.91 1018.45 1018.23 1018.16 1018.01 1017.66 1017.83 1017.28 1017.24 1017.46 1018.17 1018.10 1018.03 1018.31 1017.59 1018.35 1018.61 1018.53 1018.73 1016.73 1017.15 1017.73 1017.99 1017.91 1018.06 1018.34 1018.80 1019.08
1020.04 1020.37 1020.71 1020.00 1019.70 1019.22 1018.96 1018.66 1018.43 1018.22 1017.89 1018.09 1017.77 1017.33 1018.89 1019.34 1019.18 1019.37 1019.16 1018.64 1018.50 1018.26 1018.16 1017.90 1017.66 1017.77 1018.29 1017.69 1017.51 1017.83 1017.39 1017.67 1017.82 1018.88 1018.92 1018.46 1016.81 1016.91 1017.46 1017.60 1017.57 1017.49 1017.70 1018.10 1018.61
1019.85 1019.83 1020.60 1020.20 1019.62 1019.05 1018.65 1018.63 1018.40 1017.91 1017.64 1017.82 1017.82 1018.25 1019.33 1019.64 1019.67 1019.79 1019.43 1019.18 1018.61 1018.29 1018.08 1017.84 1017.72 1017.72 1017.86 1017.53 1017.71 1018.02 1017.92 1018.15 1018.22 1018.70 1018.84 1017.79 1016.78 1016.28 1016.48 1017.05 1017.13 1016.98 1017.16 1017.56 1018.05
1019.59 1019.56 1020.25 1020.16 1019.42 1019.16 1018.62 1018.47 1018.62 1018.22 1018.16 1019.21 1019.56 1019.52 1019.75 1020.12 1019.83 1019.69 1019.75 1019.26 1018.68 1018.40 1018.26 1018.50 1018.03 1018.60 1019.38 1019.37 1018.95 1019.16 1019.02 1018.68 1018.38 1019.36 1019.07 1017.29 1016.62 1015.97 1016.23 1016.47 1016.56 1016.55 1016.78 1017.12 1017.54
1019.94 1019.89 1019.68 1019.57 1019.40 1019.27 1018.77 1018.34 1018.68 1019.00 1019.10 1019.84 1019.87 1020.02 1020.16 1020.32 1019.78 1019.76 1019.70 1019.45 1018.76 1018.76 1019.09 1019.18 1019.67 1020.57 1020.78 1020.60 1019.93 1019.78 1019.61 1019.29 1018.94 1019.52 1019.31 1017.35 1016.28 1015.69 1016.01 1016.16 1016.41 1016.56 1016.56 1016.80 1017.18
1019.58 1019.84 1019.65 1019.23 1019.17 1019.02 1019.11 1018.99 1019.15 1018.81 1018.39 1019.88 1020.05 1020.00 1020.40 1020.31 1020.27 1020.32 1020.09 1019.92 1019.57 1019.50 1019.61 1020.05 1021.46 1021.65 1021.39 1021.28 1020.65 1020.63 1020.71 1020.78 1020.72 1019.88 1018.69 1017.86 1015.40 1015.05 1015.48 1016.01 1016.27 1016.66 1016.75 1016.81 1017.08
1019.46 1019.92 1019.65 1019.25 1019.21 1019.05 1019.06 1019.66 1019.53 1019.03 1018.97 1019.72 1019.88 1020.15 1020.34 1020.16 1020.51 1020.86 1020.91 1020.83 1020.40 1020.46 1020.72 1021.54 1022.41 1022.27 1022.18 1021.98 1021.91 1021.40 1021.96 1021.76 1021.19 1020.49 1018.38 1017.77 1015.30 1014.33 1014.68 1015.00 1015.66 1016.12 1016.59 1016.85 1017.21
1019.67 1019.60 1019.83 1019.57 1018.40 1019.16 1019.25 1019.71 1019.47 1019.33 1019.34 1019.92 1019.86 1020.27 1020.07 1019.96 1020.74 1020.79 1021.32 1020.56 1020.79 1021.26 1021.61 1022.53 1022.86 1022.88 1022.79 1022.86 1022.85 1022.49 1022.48 1022.15 1021.59 1020.72 1019.61 1017.45 1016.11 1013.92 1014.32 1014.14 1014.77 1015.65 1016.58 1016.93 1017.33
1019.40 1019.69 1019.62 1019.42 1019.06 1019.12 1019.51 1019.65 1019.64 1019.77 1019.33 1019.65 1019.45 1019.76 1019.67 1019.92 1020.41 1020.63 1020.85 1021.12 1021.67 1021.57 1022.02 1023.00 1023.72 1023.75 1023.71 1023.56 1023.57 1023.27 1022.64 1022.13 1021.62 1020.72 1019.52 1017.67 1016.22 1013.33 1013.43 1014.10 1014.60 1015.22 1016.07 1016.85 1017.16
1019.33 1019.72 1019.47 1019.32 1019.51 1019.59 1019.32 1019.67 1020.18 1019.66 1019.54 1019.38 1019.16 1019.08 1019.30 1019.67 1020.03 1020.45 1020.66 1021.07 1021.55 1021.99 1022.64 1023.32 1023.68 1024.20 1024.42 1023.86 1023.74 1023.31 1022.37 1021.97 1021.59 1020.64 1018.80 1017.79 1016.38 1013.21 1013.22 1013.84 1014.65 1015.20 1015.84 1016.41 1016.88
1019.32 1019.66 1019.75 1019.71 1019.66 1019.89 1019.26 1019.82 1019.82 1018.84 1018.89 1018.65 1018.65 1018.73 1018.78 1019.06 1019.96 1020.23 1020.49 1020.94 1021.74 1022.15 1022.88 1023.46 1023.98 1024.43 1024.79 1024.51 1024.01 1023.54 1022.99 1022.51 1022.04 1020.69 1018.72 1017.71 1015.32 1012.96 1013.40 1014.00 1014.66 1015.22 1015.72 1016.34 1016.65
1019.35 1019.55 1019.71 1019.58 1020.10 1019.84 1019.34 1020.13 1018.44 1017.70 1017.36 1017.92 1018.90 1018.55 1019.03 1019.20 1019.50 1019.65 1020.24 1020.75 1021.62 1022.45 1023.14 1023.71 1024.43 1025.01 1025.23 1025.08 1024.81 1024.14 1023.61 1023.38 1022.58 1022.20 1020.15 1016.35 1014.36 1013.39 1013.48 1013.75 1014.40 1014.98 1015.58 1015.92 1016.57
1018.74 1019.25 1019.29 1019.70 1020.24 1019.61 1019.65 1018.99 1017.89 1017.03 1017.07 1017.12 1017.45 1017.75 1017.96 1018.56 1018.97 1019.36 1019.93 1020.92 1021.95 1022.96 1023.48 1023.80 1024.61 1025.38 1025.46 1025.46 1025.18 1024.61 1024.28 1023.70 1022.89 1021.90 1019.55 1016.42 1014.60 1013.09 1013.28 1013.44 1014.13 1014.84 1015.34 1015.91 1016.53
1018.27 1018.89 1019.63 1020.02 1020.03 1019.73 1019.47 1018.66 1017.68 1017.18 1016.66 1016.93 1016.96 1017.19 1017.05 1017.39 1017.94 1018.96 1019.92 1021.12 1021.91 1023.21 1023.68 1024.16 1024.69 1025.74 1025.67 1025.20 1024.62 1024.85 1024.18 1023.61 1022.84 1022.39 1020.91 1018.02 1014.14 1013.02 1013.05 1013.52 1014.21 1014.98 1015.79 1016.25 1016.73
1017.48 1018.98 1019.57 1019.97 1020.16 1019.82 1019.12 1017.89 1017.08 1017.22 1017.12 1016.72 1016.82 1016.52 1016.66 1017.05 1017.73 1018.85 1019.99 1021.10 1022.19 1022.99 1023.58 1023.99 1024.38 1024.82 1024.98 1025.24 1025.28 1024.78 1023.96 1023.24 1022.32 1022.65 1021.94 1020.63 1015.81 1014.21 1014.07 1014.42 1015.20 1015.69 1016.33 1016.77 1017.20
1016.90 1018.52 1019.57 1019.62 1019.38 1019.44 1018.88 1017.96 1017.57 1017.24 1016.77 1016.75 1016.75 1016.49 1016.89 1017.01 1017.96 1019.13 1020.64 1022.25 1022.78 1023.26 1023.71 1023.97 1024.19 1024.50 1024.73 1025.33 1025.28 1024.74 1023.83 1023.39 1023.10 1022.53 1021.70 1020.92 1016.52 1015.59 1015.48 1015.75 1016.14 1016.58 1016.86 1017.35 1017.69
1016.51 1018.29 1019.30 1019.41 1018.76 1017.95 1018.12 1017.89 1017.44 1017.13 1016.74 1016.68 1016.65 1016.98 1017.21 1017.90 1018.18 1019.49 1020.57 1022.60 1023.40 1023.69 1024.13 1024.06 1024.19 1023.91 1023.71 1023.47 1023.45 1024.05 1023.64 1023.34 1023.10 1022.58 1021.22 1019.67 1017.55 1016.49 1016.58 1016.63 1016.88 1017.19 1017.67 1017.86 1018.28
1015.12 1016.00 1016.67 1017.97 1017.98 1017.32 1016.75 1016.36 1016.56 1016.74 1017.01 1016.88 1017.11 1017.03 1016.92 1018.52 1019.42 1019.83 1020.84 1022.63 1023.58 1024.00 1024.24 1024.22 1024.10 1023.87 1023.25 1023.15 1023.18 1022.93 1022.81 1022.92 1022.66 1021.21 1020.60 1018.67 1018.32 1016.27 1016.78 1017.07 1016.94 1017.37 1017.71 1017.99 1018.45
1014.11 1015.07 1016.44 1016.16 1015.58 1016.47 1015.96 1015.01 1015.05 1015.83 1016.15 1016.53 1016.68 1016.45 1017.33 1017.72 1018.37 1019.24 1020.59 1021.84 1022.58 1024.12 1024.24 1024.28 1024.08 1024.00 1023.34 1023.22 1023.19 1022.66 1022.19 1022.13 1021.67 1021.14 1020.02 1019.12 1017.37 1015.88 1015.59 1015.88 1016.45 1016.80 1017.43 1017.74 1017.89
1013.23 1013.73 1014.02 1014.33 1014.69 1015.00 1013.82 1014.08 1014.27 1014.88 1015.99 1015.91 1016.21 1017.18 1018.15 1018.51 1018.96 1020.09 1020.33 1020.84 1021.67 1022.76 1023.80 1024.24 1024.15 1024.07 1023.20 1022.75 1022.47 1021.52 1019.49 1019.56 1019.78 1019.35 1018.69 1018.14 1015.06 1014.95 1015.20 1015.61 1015.74 1015.87 1016.19 1016.63 1016.86
Wind_Speed
6 6 6 5 5 5 6 7 9 10 8 8 10 8 7 10 7 2 10 10 10 17 14 7 2 3 3 4 5 2 4 2 2 2 5 1 4 6 2 5 2 3 5 9 13
6 7 7 7 7 5 5 5 7 10 9 9 10 9 6 8 5 15 8 15 14 12 3 2 3 1 4 4 4 5 3 4 4 3 2 2 4 4 4 2 2 3 4 9 11
5 7 7 9 7 7 6 6 5 9 12 9 9 6 4 5 4 6 17 18 14 8 2 2 2 2 6 6 6 5 4 5 3 4 3 3 2 3 6 4 4 8 10 11 12
5 7 8 8 9 9 9 8 7 7 10 10 9 5 6 4 2 6 17 17 13 3 2 1 2 2 4 5 3 6 4 2 1 2 2 3 4 6 3 5 3 5 7 9 10
4 5 6 7 9 8 8 8 8 8 8 10 10 6 4 4 4 10 14 12 5 2 5 4 4 3 5 6 9 9 5 1 2 1 2 3 4 7 5 1 2 3 6 8 8
5 7 7 8 9 8 9 9 7 7 7 9 10 8 4 1 5 10 11 7 11 6 8 7 6 9 9 5 5 5 3 2 0 1 1 6 6 4 5 3 6 5 6 6 7
4 6 8 9 8 9 10 8 7 9 6 9 7 4 9 5 4 8 7 7 10 9 6 6 3 3 5 7 4 6 1 4 1 4 2 7 7 7 3 5 6 6 5 4 5
5 6 10 10 10 9 10 8 7 5 6 7 6 2 5 2 5 7 7 3 9 7 8 5 6 9 4 8 4 2 2 4 4 5 1 7 4 2 4 6 8 6 5 4 5
3 7 10 10 10 9 10 7 5 2 2 4 2 2 5 0 2 6 7 4 4 3 4 3 3 4 4 4 4 3 5 6 2 2 6 4 10 3 5 7 9 7 6 5 5
2 4 9 10 11 11 7 4 3 4 1 1 2 2 1 2 3 5 4 6 2 2 1 3 2 4 3 5 2 4 5 6 6 6 8 11 11 9 6 8 10 9 7 6 6
4 3 7 9 10 12 5 3 4 3 10 5 3 2 2 3 2 4 5 5 2 2 3 4 1 5 5 6 8 2 4 8 6 5 9 6 12 9 4 5 7 8 7 7 6
6 5 5 9 10 8 6 3 3 3 9 3 2 3 2 2 0 10 9 3 1 2 3 2 4 3 2 1 3 1 4 6 7 1 7 10 13 3 3 2 4 7 7 7 6
5 5 7 6 6 0 4 1 2 4 3 3 2 3 2 3 4 7 8 2 4 4 4 2 5 2 1 1 2 3 3 6 5 12 10 12 8 6 5 3 1 4 5 5 5
6 5 6 8 1 2 1 1 2 1 2 4 2 3 1 1 3 3 5 3 2 3 5 5 2 1 2 4 6 1 2 4 5 7 3 6 3 5 2 2 3 1 4 4 2
7 3 6 9 4 3 4 3 3 3 2 3 3 2 1 2 1 4 2 2 3 4 2 3 2 1 3 4 6 4 3 2 2 3 7 2 5 6 2 3 4 2 3 3 3
7 4 2 2 2 4 4 1 4 5 6 3 3 2 4 3 2 1 1 5 2 2 8 4 1 3 4 1 4 5 4 3 2 1 3 1 4 1 4 4 2 2 2 3 4
8 2 3 0 2 4 5 2 5 4 2 4 4 5 3 3 3 2 1 2 2 3 1 1 2 2 2 3 3 5 5 3 2 2 2 2 4 6 2 1 3 4 5 4 4
10 4 2 2 4 2 2 1 3 3 6 1 4 7 3 4 2 0 1 3 2 1 3 2 3 1 2 3 3 3 5 2 5 4 4 2 5 1 2 1 4 4 5 5 5
12 3 2 3 2 2 2 3 9 8 9 12 5 3 2 2 1 2 3 1 2 4 5 3 2 1 2 2 2 2 1 2 0 3 3 2 5 5 2 4 3 3 2 5 4
5 4 2 5 4 3 3 6 5 3 6 6 5 3 5 7 5 2 2 2 4 1 1 1 1 0 2 2 3 2 3 1 2 4 5 3 5 2 5 6 4 3 2 3 3
5 4 4 2 3 3 5 8 5 3 4 6 5 6 4 7 5 4 1 3 3 5 2 3 1 1 2 5 3 4 3 2 1 1 4 5 1 3 4 5 4 2 1 5 5
7 3 4 3 4 1 4 6 3 6 1 4 1 3 8 6 6 3 4 1 4 7 3 4 1 2 2 1 1 3 3 4 3 3 1 2 8 1 3 1 1 3 3 4 4
6 4 3 3 6 4 3 3 3 5 6 8 6 1 2 7 6 4 3 2 4 4 2 4 2 1 2 2 1 5 6 5 3 2 6 2 3 3 3 4 6 7 5 4 4
5 6 3 5 1 5 6 4 5 1 3 2 5 3 5 3 4 8 6 3 3 2 1 3 2 4 3 2 3 4 6 12 6 4 6 10 11 10 7 8 6 5 5 5 5
3 4 6 9 7 7 11 13 8 7 2 4 2 7 8 5 3 3 4 5 4 5 3 3 4 2 4 5 3 4 5 11 13 10 9 3 8 15 6 7 7 5 5 4 6
8 7 3 4 12 20 10 10 16 7 11 7 6 13 5 10 11 10 8 7 6 6 6 4 2 1 4 1 4 7 10 12 17 10 15 13 25 15 12 7 4 7 6 6 6
1 2 2 6 10 14 17 13 15 11 4 1 11 6 5 0 11 11 7 8 9 10 10 6 3 2 4 1 3 9 12 17 9 8 11 13 14 7 6 4 6 7 9 8 8
Wind_Direction
28 19 15 12 18 358 351 340 335 327 335 335 322 325 328 313 267 86 44 334 314 316 316 279 221 72 82 79 38 309 245 83 56 308 63 25 312 99 309 294 33 34 20 342 341
18 13 3 1 357 359 344 348 343 324 324 333 317 307 307 310 307 53 2 339 330 328 290 253 74 54 79 61 33 349 320 53 20 20 340 348 325 331 294 303 201 226 17 356 345
26 10 7 349 357 342 338 327 333 323 319 330 328 316 296 288 252 12 353 341 334 307 350 8 72 44 74 59 14 25 52 123 86 21 333 355 279 340 314 269 47 330 336 341 342
26 7 359 355 348 338 334 331 323 320 318 322 328 311 306 230 285 352 340 335 320 289 260 49 241 86 73 62 61 115 73 359 108 45 309 332 329 294 310 17 349 328 329 325 333
23 10 354 347 338 334 331 320 324 327 324 319 322 315 280 95 43 333 329 336 330 17 43 62 60 77 96 98 86 89 104 87 126 179 5 314 280 318 264 219 227 289 296 315 317
26 353 352 346 335 341 332 322 327 318 321 317 322 316 250 127 339 336 338 356 12 62 64 63 81 92 84 67 32 102 123 148 233 305 279 297 300 252 161 222 242 256 296 309 315
354 346 343 336 340 340 325 317 319 307 323 315 327 315 62 80 332 348 6 13 12 24 72 43 6 257 119 114 108 118 176 233 246 348 253 318 215 229 138 216 261 263 279 303 304
338 348 332 335 337 339 324 321 304 291 324 308 304 283 73 18 333 9 345 41 37 32 74 30 43 78 62 120 135 163 239 267 100 331 142 308 20 193 193 246 266 282 282 281 297
332 333 324 332 327 329 327 314 290 239 45 310 281 299 99 280 4 347 5 353 334 39 58 61 59 73 157 204 157 159 339 341 185 55 321 290 319 107 238 256 274 277 279 281 286
287 330 320 326 328 328 329 305 303 232 274 178 114 151 95 32 345 332 350 333 358 304 195 32 91 123 52 237 44 354 329 333 312 36 324 284 276 306 256 245 275 276 277 277 288
266 311 311 324 337 329 287 247 211 153 47 51 10 45 56 342 268 16 6 308 273 61 21 25 73 59 44 39 90 69 306 302 323 25 320 288 305 304 347 277 263 269 276 285 292
261 287 314 338 332 332 283 264 29 23 100 61 80 85 60 336 321 34 355 290 331 75 337 199 79 79 53 12 95 61 322 356 306 311 311 297 304 253 263 318 307 306 305 300 292
238 282 313 337 331 254 303 68 357 314 89 88 64 52 10 338 58 2 355 350 36 62 39 36 83 127 302 271 285 75 3 353 308 316 262 284 244 216 183 248 273 285 299 285 270
227 268 314 313 127 101 107 114 286 344 108 148 168 105 161 81 84 6 14 348 52 110 68 69 100 184 270 289 307 283 90 305 306 328 337 340 317 180 188 306 199 302 324 340 321
225 246 318 329 111 230 91 202 260 264 50 117 103 52 120 50 71 80 9 282 60 96 231 97 151 199 272 3 317 35 298 299 297 293 313 188 245 107 179 303 41 12 334 328 326
208 219 263 252 263 108 135 248 255 49 255 150 127 152 171 80 76 12 96 65 36 91 55 81 72 343 7 343 304 319 249 218 242 283 252 169 293 86 345 337 338 12 5 318 319
182 193 245 140 0 142 116 225 45 154 306 188 163 168 125 87 85 13 18 157 235 73 305 207 137 120 318 269 210 268 288 325 283 231 293 155 259 273 295 253 282 301 315 316 301
154 174 48 349 128 159 148 171 131 223 214 135 131 137 137 143 104 68 268 240 178 100 133 202 265 196 35 336 343 10 318 125 291 326 360 124 237 164 123 200 263 263 274 287 271
139 158 227 136 192 127 176 123 207 202 158 149 138 138 121 90 164 155 221 238 74 188 170 143 225 130 36 353 323 63 267 41 144 142 274 251 249 252 204 212 199 234 259 277 295
162 185 176 133 193 154 84 238 217 173 133 155 156 201 143 159 164 107 192 112 145 132 75 158 308 337 72 259 122 260 125 139 83 301 272 207 277 289 203 208 195 230 262 314 308
152 191 94 172 220 186 186 223 225 200 161 161 166 136 170 156 129 136 234 141 162 149 177 119 171 81 273 203 166 162 205 220 133 248 299 315 254 184 163 178 193 163 309 324 323
157 191 127 170 151 207 185 194 174 173 167 125 222 125 161 161 133 163 209 121 143 158 177 152 233 215 231 78 328 283 284 252 186 167 226 294 275 325 107 131 242 241 262 313 315
163 124 118 238 189 205 291 233 256 167 184 160 185 180 177 156 115 146 128 51 155 185 170 161 218 281 264 191 176 243 194 230 75 100 208 253 268 2 284 263 249 254 256 286 285
135 136 131 213 215 172 147 218 217 191 152 150 123 110 127 69 353 161 139 139 176 190 93 154 232 226 279 84 97 196 209 205 200 187 176 228 293 282 282 263 263 257 262 263 250
156 199 185 184 216 206 195 174 177 191 217 189 161 230 162 112 45 173 114 128 168 182 166 228 247 210 261 240 240 250 189 194 207 215 212 206 229 266 242 252 247 237 268 232 254
142 148 211 169 169 191 197 212 206 168 160 209 222 188 222 151 190 187 153 179 180 169 182 180 257 180 271 174 233 263 244 212 223 238 262 277 285 275 296 273 222 237 236 238 234
122 48 179 171 168 179 210 199 212 165 204 311 181 138 177 218 87 44 52 90 146 145 179 175 193 185 263 299 286 267 227 208 191 213 212 215 232 260 279 265 257 243 209 219 223